Location: Newark
(52.0167°N, 6.1333°E)
Time: 20:41:36
(UTC+00:00)

OTV 5 (USA 277) - Visible Passes

Search period start: 14 October 2019 00:00
Search period end: 24 October 2019 00:00
Orbit: 310 x 324 km, 54.5° (Epoch: 08 October)

Date Brightness Start Highest point End Pass type
(mag) Time Alt. Az. Time Alt. Az. Time Alt. Az.
14 Oct ? 03:38:55 30° ENE 03:38:55 30° ENE 03:40:37 10° ENE visible
14 Oct ? 05:09:48 11° WNW 05:12:24 81° SSW 05:15:08 10° ESE visible
15 Oct ? 03:53:05 45° NE 03:53:05 45° NE 03:55:19 10° E visible
15 Oct ? 05:24:16 10° WNW 05:26:55 43° SSW 05:29:32 10° SE visible
16 Oct ? 04:07:19 77° NE 04:07:19 77° NE 04:09:58 10° ESE visible
17 Oct ? 04:21:38 59° SW 04:21:46 60° SSW 04:24:29 10° SE visible
18 Oct ? 04:36:01 30° SW 04:36:14 31° SW 04:38:42 10° SSE visible
19 Oct ? 04:50:31 16° SW 04:50:35 16° SW 04:52:23 10° S visible
